Regional Weather Roundup
Issued by NWS Goodland, KS

Home | Current Version | Previous Version | Text Only | Print | Product List | Glossary On
Versions: 1 2 3 4 5 6 7 8 9 10 11 12 13 14 15 16 17 18 19 20 21 22 23 24 25 26 27 28 29 30 31 32 33 34 35 36 37 38 39 40 41 42 43 44 45 46 47 48 49 50
000
ASUS43 KGLD 271408
RWRGLD

GOODLAND FORECAST AREA HOURLY WEATHER ROUNDUP
NATIONAL WEATHER SERVICE GOODLAND KS
800 AM MDT TUE SEP 27 2016

...OFFICIAL OBSERVATIONS...

CITY           SKY/WX    TMP DP  RH WIND       PRES   REMARKS
GOODLAND KS    SUNNY     55  42  61 W6        30.18R
HILL CITY KS   SUNNY     54  47  77 NW3       30.12S
IMPERIAL NEB   SUNNY     51  41  68 N6        30.16F
MCCOOK NEB     SUNNY     50  43  77 W6        30.14R HAZE
AKRON CO       SUNNY     51  33  50 W13       30.22R
BURLINGTON CO  SUNNY     50  40  68 W7        30.21R
LIMON CO       SUNNY     51  31  46 N5        30.26S
$$

...UNOFFICIAL OBSERVATIONS...

CITY           SKY/WX    TMP DP  RH WIND       PRES   REMARKS
COLBY KS       SUNNY     57  46  67 NW9       30.18S
LENORA KS        N/A     55  32  41 MISG        N/A
NORTON KS      SUNNY     55  41  58 W9        30.12R
SHARON SPRINGS   N/A     53  43  69 CALM        N/A
TRIBUNE KS     SUNNY     57  45  62 CALM      30.21
KIT CARSON CO    N/A     46  38  75 CALM        N/A
$$




USA.gov is the U.S. government's official web portal to all federal, state and local government web resources and services.